| time (UTC) | temp F | wind direction | speed MPH | gust MPH | rain 1hr in | rain 24hr in | rain mn in | humidity % | barometer mb |
| 20260506084522 | 59 | 153 | 2.0 | 6.0 | 0.00 | 0.00 | 0.00 | 83 | 1008.6 |
| 20260506083522 | 59 | 234 | 3.0 | 7.0 | 0.00 | 0.00 | 0.00 | 83 | 1008.6 |
| 20260506083022 | 59 | 192 | 3.0 | 5.0 | 0.00 | 0.00 | 0.00 | 82 | 1008.7 |
| 20260506081522 | 59 | 230 | 2.0 | 5.0 | 0.00 | 0.00 | 0.00 | 82 | 1008.8 |
| 20260506081021 | 59 | 221 | 2.0 | 5.0 | 0.00 | 0.00 | 0.00 | 81 | 1008.7 |
| 20260506080521 | 59 | 150 | 2.0 | 5.0 | 0.00 | 0.00 | 0.00 | 81 | 1008.7 |
| 20260506073522 | 59 | 201 | 3.0 | 8.0 | 0.00 | 0.00 | 0.00 | 79 | 1009.0 |
| 20260506072521 | 59 | 147 | 2.0 | 7.0 | 0.00 | 0.00 | 0.00 | 79 | 1008.7 |
| 20260506072022 | 60 | 202 | 2.0 | 6.0 | 0.00 | 0.00 | 0.00 | 78 | 1008.7 |
| 20260506071521 | 60 | 184 | 3.0 | 13.0 | 0.00 | 0.00 | 0.00 | 78 | 1008.7 |
| 20260506071022 | 60 | 131 | 4.0 | 9.0 | 0.00 | 0.00 | 0.00 | 77 | 1008.6 |
| 20260506070522 | 60 | 235 | 2.0 | 7.0 | 0.00 | 0.00 | 0.00 | 77 | 1008.5 |
| 20260506062021 | 62 | 238 | 3.0 | 10.0 | 0.00 | 0.00 | 0.00 | 72 | 1008.3 |
| 20260506061021 | 62 | 210 | 3.0 | 6.0 | 0.00 | 0.00 | 0.00 | 72 | 1008.5 |
| 20260506060521 | 62 | 218 | 3.0 | 6.0 | 0.00 | 0.00 | 0.00 | 71 | 1008.4 |
| 20260506051022 | 62 | 210 | 2.0 | 12.0 | 0.00 | 0.00 | 0.00 | 67 | 1008.7 |
| 20260506045021 | 63 | 210 | 3.0 | 12.0 | 0.00 | 0.00 | 0.00 | 65 | 1008.9 |
| 20260506044521 | 63 | 190 | 3.0 | 10.0 | 0.00 | 0.00 | 0.00 | 65 | 1008.9 |
| 20260506044021 | 62 | 210 | 3.0 | 9.0 | 0.00 | 0.00 | 0.00 | 65 | 1009.0 |
| 20260506043021 | 63 | 224 | 3.0 | 7.0 | 0.00 | 0.00 | 0.00 | 65 | 1009.0 |
| 20260506042521 | 62 | 124 | 4.0 | 8.0 | 0.00 | 0.00 | 0.00 | 64 | 1008.9 |
| 20260506042021 | 62 | 223 | 2.0 | 6.0 | 0.00 | 0.00 | 0.00 | 65 | 1008.9 |
| 20260506041021 | 62 | 134 | 3.0 | 7.0 | 0.00 | 0.00 | 0.00 | 64 | 1009.0 |
| 20260506040521 | 62 | 197 | 2.0 | 8.0 | 0.00 | 0.00 | 0.00 | 63 | 1008.9 |
| 20260506040021 | 62 | 193 | 3.0 | 7.0 | 0.00 | 0.00 | 0.00 | 64 | 1009.0 |
| 20260506035521 | 62 | 272 | 3.0 | 10.0 | 0.00 | 0.00 | 0.00 | 63 | 1008.9 |
| 20260506035021 | 62 | 164 | 3.0 | 8.0 | 0.00 | 0.00 | 0.00 | 63 | 1008.9 |
| 20260506034021 | 63 | 203 | 3.0 | 8.0 | 0.00 | 0.00 | 0.00 | 63 | 1008.8 |
| 20260506033521 | 62 | 181 | 3.0 | 8.0 | 0.00 | 0.00 | 0.00 | 63 | 1008.8 |
| 20260506033021 | 62 | 142 | 4.0 | 7.0 | 0.00 | 0.00 | 0.00 | 63 | 1008.6 |
| 20260506032521 | 62 | 309 | 3.0 | 9.0 | 0.00 | 0.00 | 0.00 | 64 | 1008.6 |
| 20260506032021 | 62 | 193 | 3.0 | 6.0 | 0.00 | 0.00 | 0.00 | 63 | 1008.8 |
| 20260506031521 | 62 | 267 | 3.0 | 6.0 | 0.00 | 0.00 | 0.00 | 63 | 1008.6 |
| 20260506031020 | 62 | 207 | 3.0 | 7.0 | 0.00 | 0.00 | 0.00 | 63 | 1008.6 |
| 20260506030521 | 62 | 246 | 3.0 | 7.0 | 0.00 | 0.00 | 0.00 | 63 | 1008.8 |
| 20260506025521 | 62 | 189 | 3.0 | 8.0 | 0.00 | 0.00 | 0.00 | 63 | 1008.6 |
| 20260506025020 | 62 | 208 | 3.0 | 6.0 | 0.00 | 0.00 | 0.00 | 64 | 1008.7 |
| 20260506023520 | 62 | 174 | 3.0 | 6.0 | 0.00 | 0.00 | 0.00 | 63 | 1008.7 |
| 20260506022520 | 62 | 194 | 3.0 | 8.0 | 0.00 | 0.00 | 0.00 | 62 | 1008.8 |
| 20260506022020 | 62 | 196 | 4.0 | 12.0 | 0.00 | 0.00 | 0.00 | 62 | 1008.6 |
| 20260506021520 | 62 | 213 | 3.0 | 7.0 | 0.00 | 0.00 | 0.00 | 62 | 1008.6 |
| 20260506021021 | 62 | 213 | 3.0 | 9.0 | 0.00 | 0.00 | 0.00 | 62 | 1008.6 |
| 20260506020521 | 62 | 190 | 3.0 | 8.0 | 0.00 | 0.00 | 0.00 | 61 | 1008.6 |
| 20260506020020 | 62 | 218 | 3.0 | 7.0 | 0.00 | 0.00 | 0.00 | 62 | 1008.7 |
| 20260506015520 | 62 | 190 | 3.0 | 10.0 | 0.00 | 0.00 | 0.00 | 61 | 1008.7 |
| 20260506015020 | 62 | 185 | 3.0 | 9.0 | 0.00 | 0.00 | 0.00 | 60 | 1008.7 |
| 20260506014020 | 63 | 227 | 3.0 | 14.0 | 0.00 | 0.00 | 0.00 | 60 | 1008.7 |
| 20260506013521 | 63 | 211 | 3.0 | 8.0 | 0.00 | 0.00 | 0.00 | 60 | 1008.5 |
| 20260506013021 | 63 | 215 | 3.0 | 8.0 | 0.00 | 0.00 | 0.00 | 59 | 1008.7 |
| 20260506012021 | 63 | 188 | 3.0 | 7.0 | 0.00 | 0.00 | 0.00 | 58 | 1008.4 |
| 20260506011520 | 64 | 172 | 3.0 | 6.0 | 0.00 | 0.00 | 0.00 | 58 | 1008.4 |
| 20260506010021 | 64 | 168 | 4.0 | 8.0 | 0.00 | 0.00 | 0.00 | 56 | 1008.1 |
| 20260506005521 | 65 | 206 | 3.0 | 9.0 | 0.00 | 0.00 | 0.00 | 56 | 1008.1 |
| 20260506005020 | 65 | 194 | 3.0 | 12.0 | 0.00 | 0.00 | 0.00 | 56 | 1008.1 |
| 20260506004020 | 65 | 149 | 4.0 | 12.0 | 0.00 | 0.00 | 0.00 | 56 | 1008.1 |
| 20260506003520 | 65 | 140 | 3.0 | 8.0 | 0.00 | 0.00 | 0.00 | 56 | 1008.0 |
| 20260506003021 | 65 | 217 | 2.0 | 6.0 | 0.00 | 0.00 | 0.00 | 57 | 1007.9 |
| 20260506002520 | 65 | 196 | 2.0 | 8.0 | 0.00 | 0.00 | 0.00 | 56 | 1007.6 |
| 20260506002021 | 65 | 238 | 3.0 | 9.0 | 0.00 | 0.00 | 0.00 | 56 | 1007.6 |
| 20260506001021 | 66 | 264 | 3.0 | 8.0 | 0.00 | 0.00 | 0.00 | 54 | 1007.4 |
| 20260506000520 | 66 | 213 | 2.0 | 10.0 | 0.00 | 0.00 | 0.00 | 54 | 1007.3 |
| 20260506000021 | 66 | 206 | 4.0 | 10.0 | 0.00 | 0.00 | 0.00 | 54 | 1007.3 |
| 20260505235520 | 67 | 162 | 3.0 | 6.0 | 0.00 | 0.00 | 0.00 | 53 | 1007.1 |
| 20260505235020 | 67 | 168 | 3.0 | 6.0 | 0.00 | 0.00 | 0.00 | 52 | 1007.1 |
| 20260505234520 | 67 | 200 | 2.0 | 8.0 | 0.00 | 0.00 | 0.00 | 52 | 1006.9 |
| 20260505234020 | 67 | 200 | 2.0 | 7.0 | 0.00 | 0.00 | 0.00 | 51 | 1006.9 |
| 20260505233521 | 68 | 166 | 2.0 | 10.0 | 0.00 | 0.00 | 0.00 | 52 | 1006.9 |
| 20260505233020 | 68 | 185 | 3.0 | 8.0 | 0.00 | 0.00 | 0.00 | 53 | 1006.8 |
| 20260505232521 | 68 | 201 | 3.0 | 7.0 | 0.00 | 0.00 | 0.00 | 51 | 1006.9 |
| 20260505232020 | 68 | 183 | 3.0 | 7.0 | 0.00 | 0.00 | 0.00 | 50 | 1006.7 |
| 20260505231521 | 69 | 200 | 3.0 | 7.0 | 0.00 | 0.00 | 0.00 | 49 | 1006.7 |
| 20260505231020 | 69 | 165 | 3.0 | 10.0 | 0.00 | 0.00 | 0.00 | 50 | 1006.6 |
| 20260505230520 | 69 | 111 | 5.0 | 10.0 | 0.00 | 0.00 | 0.00 | 48 | 1006.4 |
| 20260505230020 | 69 | 145 | 3.0 | 7.0 | 0.00 | 0.00 | 0.00 | 49 | 1006.4 |
| 20260505225520 | 70 | 170 | 2.0 | 6.0 | 0.00 | 0.00 | 0.00 | 49 | 1006.4 |
| 20260505225020 | 70 | 89 | 3.0 | 10.0 | 0.00 | 0.00 | 0.00 | 48 | 1006.2 |
| 20260505224520 | 70 | 225 | 3.0 | 10.0 | 0.00 | 0.00 | 0.00 | 47 | 1006.2 |
| 20260505224020 | 71 | 183 | 2.0 | 6.0 | 0.00 | 0.00 | 0.00 | 47 | 1006.2 |
| 20260505223521 | 72 | 174 | 3.0 | 8.0 | 0.00 | 0.00 | 0.00 | 46 | 1005.9 |
| 20260505222520 | 72 | 116 | 4.0 | 12.0 | 0.00 | 0.00 | 0.00 | 44 | 1005.7 |
| 20260505222020 | 72 | 173 | 5.0 | 10.0 | 0.00 | 0.00 | 0.00 | 44 | 1005.7 |
| 20260505221520 | 72 | 188 | 3.0 | 8.0 | 0.00 | 0.00 | 0.00 | 44 | 1005.8 |
| 20260505221020 | 73 | 202 | 3.0 | 8.0 | 0.00 | 0.00 | 0.00 | 45 | 1005.9 |
| 20260505220520 | 73 | 107 | 3.0 | 10.0 | 0.00 | 0.00 | 0.00 | 45 | 1005.8 |
| 20260505220020 | 73 | 226 | 3.0 | 9.0 | 0.00 | 0.00 | 0.00 | 45 | 1005.9 |
| 20260505215520 | 73 | 211 | 3.0 | 8.0 | 0.00 | 0.00 | 0.00 | 43 | 1005.9 |
| 20260505215020 | 73 | 213 | 4.0 | 9.0 | 0.00 | 0.00 | 0.00 | 45 | 1005.9 |
| 20260505214520 | 73 | 196 | 5.0 | 10.0 | 0.00 | 0.00 | 0.00 | 43 | 1005.8 |
| 20260505214020 | 74 | 112 | 3.0 | 10.0 | 0.00 | 0.00 | 0.00 | 44 | 1005.8 |
| 20260505213520 | 74 | 167 | 3.0 | 8.0 | 0.00 | 0.00 | 0.00 | 43 | 1005.7 |
| 20260505213020 | 74 | 193 | 5.0 | 10.0 | 0.00 | 0.00 | 0.00 | 42 | 1005.7 |
| 20260505212520 | 74 | 190 | 5.0 | 12.0 | 0.00 | 0.00 | 0.00 | 42 | 1005.7 |
| 20260505212020 | 75 | 180 | 5.0 | 13.0 | 0.00 | 0.00 | 0.00 | 41 | 1005.5 |
| 20260505211520 | 75 | 284 | 3.0 | 9.0 | 0.00 | 0.00 | 0.00 | 42 | 1005.4 |
| 20260505211019 | 76 | 196 | 5.0 | 9.0 | 0.00 | 0.00 | 0.00 | 40 | 1005.4 |
| 20260505210520 | 76 | 188 | 5.0 | 15.0 | 0.00 | 0.00 | 0.00 | 41 | 1005.5 |
| 20260505210020 | 76 | 200 | 5.0 | 8.0 | 0.00 | 0.00 | 0.00 | 39 | 1005.5 |
| 20260505205519 | 77 | 246 | 5.0 | 9.0 | 0.00 | 0.00 | 0.00 | 39 | 1005.6 |
| 20260505205020 | 77 | 197 | 3.0 | 8.0 | 0.00 | 0.00 | 0.00 | 40 | 1005.6 |
| 20260505204520 | 77 | 182 | 3.0 | 10.0 | 0.00 | 0.00 | 0.00 | 39 | 1005.3 |
| 20260505204020 | 76 | 117 | 3.0 | 12.0 | 0.00 | 0.00 | 0.00 | 42 | 1005.4 |
| 20260505203520 | 76 | 119 | 3.0 | 12.0 | 0.00 | 0.00 | 0.00 | 42 | 1005.2 |
| 20260505203020 | 76 | 135 | 4.0 | 10.0 | 0.00 | 0.00 | 0.00 | 45 | 1005.2 |
| 20260505202520 | 76 | 164 | 3.0 | 8.0 | 0.00 | 0.00 | 0.00 | 43 | 1005.4 |
| 20260505202019 | 77 | 316 | 3.0 | 8.0 | 0.00 | 0.00 | 0.00 | 42 | 1005.4 |
| 20260505201519 | 76 | 180 | 5.0 | 10.0 | 0.00 | 0.00 | 0.00 | 42 | 1005.4 |
| 20260505201020 | 77 | 155 | 3.0 | 6.0 | 0.00 | 0.00 | 0.00 | 41 | 1005.4 |
| 20260505195520 | 77 | 206 | 5.0 | 9.0 | 0.00 | 0.00 | 0.00 | 41 | 1005.3 |
| 20260505194520 | 77 | 189 | 3.0 | 12.0 | 0.00 | 0.00 | 0.00 | 41 | 1005.5 |
| 20260505194019 | 78 | 154 | 5.0 | 10.0 | 0.00 | 0.00 | 0.00 | 44 | 1005.5 |
| 20260505193520 | 78 | 182 | 3.0 | 8.0 | 0.00 | 0.00 | 0.00 | 44 | 1005.5 |
| 20260505193019 | 79 | 188 | 4.0 | 9.0 | 0.00 | 0.00 | 0.00 | 41 | 1005.6 |
| 20260505192519 | 80 | 181 | 4.0 | 12.0 | 0.00 | 0.00 | 0.00 | 37 | 1005.6 |
| 20260505191019 | 81 | 226 | 5.0 | 9.0 | 0.00 | 0.00 | 0.00 | 33 | 1005.5 |
| 20260505190520 | 81 | 181 | 4.0 | 8.0 | 0.00 | 0.00 | 0.00 | 37 | 1005.7 |
| 20260505190019 | 81 | 181 | 3.0 | 8.0 | 0.00 | 0.00 | 0.00 | 34 | 1005.7 |
| 20260505185019 | 80 | 190 | 4.0 | 9.0 | 0.00 | 0.00 | 0.00 | 36 | 1005.7 |
| 20260505184520 | 81 | 258 | 3.0 | 12.0 | 0.00 | 0.00 | 0.00 | 34 | 1005.9 |
| 20260505184020 | 80 | 140 | 3.0 | 8.0 | 0.00 | 0.00 | 0.00 | 36 | 1005.8 |
| 20260505183520 | 79 | 85 | 4.0 | 8.0 | 0.00 | 0.00 | 0.00 | 37 | 1005.9 |
| 20260505182520 | 79 | 128 | 4.0 | 8.0 | 0.00 | 0.00 | 0.00 | 40 | 1006.1 |
| 20260505180519 | 77 | 224 | 4.0 | 9.0 | 0.00 | 0.00 | 0.00 | 42 | 1006.4 |
| 20260505180020 | 78 | 167 | 3.0 | 8.0 | 0.00 | 0.00 | 0.00 | 43 | 1006.4 |
| 20260505175519 | 78 | 147 | 4.0 | 8.0 | 0.00 | 0.00 | 0.00 | 42 | 1006.4 |
| 20260505175020 | 78 | 220 | 4.0 | 9.0 | 0.00 | 0.00 | 0.00 | 40 | 1006.6 |
| 20260505174019 | 79 | 214 | 3.0 | 8.0 | 0.00 | 0.00 | 0.00 | 40 | 1006.9 |
| 20260505173520 | 79 | 260 | 2.0 | 7.0 | 0.00 | 0.00 | 0.00 | 42 | 1006.7 |
| 20260505172519 | 79 | 138 | 3.0 | 8.0 | 0.00 | 0.00 | 0.00 | 40 | 1006.7 |
| 20260505172020 | 79 | 146 | 4.0 | 12.0 | 0.00 | 0.00 | 0.00 | 39 | 1006.8 |
| 20260505170520 | 79 | 185 | 3.0 | 8.0 | 0.00 | 0.00 | 0.00 | 42 | 1007.0 |
| 20260505170019 | 79 | 205 | 2.0 | 7.0 | 0.00 | 0.00 | 0.00 | 44 | 1006.9 |
| 20260505165520 | 79 | 173 | 4.0 | 12.0 | 0.00 | 0.00 | 0.00 | 42 | 1007.1 |
| 20260505165019 | 79 | 201 | 3.0 | 7.0 | 0.00 | 0.00 | 0.00 | 39 | 1007.1 |
| 20260505164520 | 79 | 187 | 2.0 | 13.0 | 0.00 | 0.00 | 0.00 | 35 | 1007.1 |
| 20260505163519 | 79 | 269 | 3.0 | 7.0 | 0.00 | 0.00 | 0.00 | 35 | 1007.4 |
| 20260505163019 | 78 | 200 | 2.0 | 5.0 | 0.00 | 0.00 | 0.00 | 44 | 1007.6 |
| 20260505162520 | 78 | 235 | 2.0 | 6.0 | 0.00 | 0.00 | 0.00 | 40 | 1007.6 |
| 20260505161019 | 76 | 215 | 3.0 | 10.0 | 0.00 | 0.00 | 0.00 | 42 | 1008.0 |
| 20260505160519 | 75 | 224 | 3.0 | 7.0 | 0.00 | 0.00 | 0.00 | 41 | 1008.1 |
| 20260505153019 | 72 | 152 | 3.0 | 6.0 | 0.00 | 0.00 | 0.00 | 45 | 1008.2 |
| 20260505152519 | 71 | 209 | 2.0 | 7.0 | 0.00 | 0.00 | 0.00 | 48 | 1008.3 |
| 20260505151519 | 70 | 248 | 2.0 | 5.0 | 0.00 | 0.00 | 0.00 | 48 | 1008.3 |
| 20260505151018 | 70 | 235 | 1.0 | 6.0 | 0.00 | 0.00 | 0.00 | 48 | 1008.4 |
| 20260505150519 | 70 | 198 | 2.0 | 6.0 | 0.00 | 0.00 | 0.00 | 47 | 1008.4 |
| 20260505140519 | 68 | 102 | 1.0 | 3.0 | 0.00 | 0.00 | 0.00 | 52 | 1008.7 |
| 20260505125018 | 62 | 348 | 2.0 | 5.0 | 0.00 | 0.00 | 0.00 | 65 | 1008.9 |
| 20260505124519 | 62 | 215 | 2.0 | 3.0 | 0.00 | 0.00 | 0.00 | 66 | 1008.9 |
| 20260505124019 | 63 | 166 | 2.0 | 3.0 | 0.00 | 0.00 | 0.00 | 63 | 1008.8 |
| 20260505123518 | 62 | 226 | 2.0 | 5.0 | 0.00 | 0.00 | 0.00 | 64 | 1008.9 |
| 20260505123018 | 61 | 267 | 2.0 | 5.0 | 0.00 | 0.00 | 0.00 | 65 | 1008.8 |
| 20260505122518 | 62 | 235 | 2.0 | 6.0 | 0.00 | 0.00 | 0.00 | 64 | 1008.5 |
| 20260505122019 | 62 | 175 | 1.0 | 3.0 | 0.00 | 0.00 | 0.00 | 64 | 1008.6 |
| 20260505121519 | 60 | 160 | 1.0 | 5.0 | 0.00 | 0.00 | 0.00 | 66 | 1008.7 |
| 20260505121019 | 60 | 105 | 2.0 | 5.0 | 0.00 | 0.00 | 0.00 | 68 | 1008.8 |
| 20260505120519 | 59 | 235 | 2.0 | 6.0 | 0.00 | 0.00 | 0.00 | 69 | 1008.7 |
| 20260505120018 | 59 | 182 | 2.0 | 7.0 | 0.00 | 0.00 | 0.00 | 69 | 1008.7 |
| 20260505115018 | 58 | 274 | 2.0 | 6.0 | 0.00 | 0.00 | 0.00 | 71 | 1008.6 |
| 20260505114018 | 57 | 143 | 1.0 | 6.0 | 0.00 | 0.00 | 0.00 | 73 | 1008.7 |
| 20260505113519 | 57 | 325 | 2.0 | 6.0 | 0.00 | 0.00 | 0.00 | 75 | 1008.7 |
| 20260505113018 | 57 | 250 | 1.0 | 3.0 | 0.00 | 0.00 | 0.00 | 75 | 1008.6 |
| 20260505112518 | 56 | 202 | 2.0 | 3.0 | 0.00 | 0.00 | 0.00 | 75 | 1008.6 |
| 20260505112018 | 56 | 297 | 1.0 | 7.0 | 0.00 | 0.00 | 0.00 | 77 | 1008.6 |
| 20260505111518 | 55 | 192 | 2.0 | 5.0 | 0.00 | 0.00 | 0.00 | 78 | 1008.5 |
| 20260505111018 | 55 | 208 | 2.0 | 3.0 | 0.00 | 0.00 | 0.00 | 79 | 1008.5 |
| 20260505110519 | 54 | 264 | 1.0 | 6.0 | 0.00 | 0.00 | 0.00 | 79 | 1008.7 |
| 20260505102018 | 51 | 160 | 2.0 | 6.0 | 0.00 | 0.00 | 0.00 | 87 | 1008.4 |
| 20260505101519 | 50 | 197 | 1.0 | 3.0 | 0.00 | 0.00 | 0.00 | 87 | 1008.4 |
| 20260505101018 | 50 | 163 | 1.0 | 3.0 | 0.00 | 0.00 | 0.00 | 88 | 1008.2 |
| 20260505100518 | 50 | 194 | 1.0 | 2.0 | 0.00 | 0.00 | 0.00 | 88 | 1008.2 |
| 20260505100018 | 50 | 117 | 1.0 | 2.0 | 0.00 | 0.00 | 0.00 | 88 | 1008.2 |
| 20260505095518 | 50 | 168 | 1.0 | 2.0 | 0.00 | 0.00 | 0.00 | 88 | 1008.3 |
| 20260505095019 | 50 | 194 | 1.0 | 2.0 | 0.00 | 0.00 | 0.00 | 87 | 1008.3 |
| 20260505094518 | 50 | 173 | 2.0 | 5.0 | 0.00 | 0.00 | 0.00 | 87 | 1008.3 |
| 20260505093518 | 50 | 187 | 2.0 | 6.0 | 0.00 | 0.00 | 0.00 | 86 | 1008.4 |
| 20260505093018 | 50 | 174 | 2.0 | 3.0 | 0.00 | 0.00 | 0.00 | 86 | 1008.4 |
| 20260505092518 | 50 | 162 | 2.0 | 3.0 | 0.00 | 0.00 | 0.00 | 86 | 1008.4 |
| 20260505092018 | 50 | 182 | 2.0 | 5.0 | 0.00 | 0.00 | 0.00 | 86 | 1008.4 |
| 20260505091018 | 50 | 115 | 2.0 | 6.0 | 0.00 | 0.00 | 0.00 | 86 | 1008.6 |
| 20260505090518 | 50 | 157 | 1.0 | 9.0 | 0.00 | 0.00 | 0.00 | 87 | 1008.6 |
| 20260505090018 | 50 | 146 | 1.0 | 2.0 | 0.00 | 0.00 | 0.00 | 86 | 1008.6 |
| 20260505085518 | 50 | 170 | 2.0 | 3.0 | 0.00 | 0.00 | 0.00 | 85 | 1008.5 |
| 20260505085018 | 50 | 157 | 1.0 | 5.0 | 0.00 | 0.00 | 0.00 | 85 | 1008.5 |